QPF
0.02 0.03 0.03 0.03 0.03 0.03 0.03 0.02 0.02 0.02 0.03 0.03 0.05 0.06 0.06 0.05 0.05 0.05 0.04 0.05 0.04 0.04 0.04 0.06 0.07 0.08 0.08 0.07 0.08 0.10 0.10 0.09 0.06 0.03 0.01 0.01 0.01 0.02 0.02 0.02 0.02 0.02 0.02
0.02 0.03 0.03 0.04 0.04 0.03 0.03 0.03 0.03 0.03 0.03 0.03 0.04 0.05 0.05 0.05 0.05 0.04 0.03 0.03 0.04 0.05 0.05 0.07 0.07 0.09 0.10 0.09 0.10 0.10 0.09 0.08 0.08 0.06 0.03 0.04 0.04 0.03 0.03 0.03 0.01 0.01 0.02
0.03 0.04 0.04 0.03 0.03 0.02 0.02 0.02 0.02 0.02 0.03 0.03 0.03 0.03 0.04 0.04 0.04 0.04 0.04 0.05 0.04 0.05 0.06 0.08 0.09 0.10 0.10 0.11 0.10 0.09 0.09 0.08 0.08 0.07 0.04 0.05 0.05 0.04 0.04 0.02 0.02 0.02 0.01
0.04 0.04 0.04 0.03 0.02 0.02 0.02 0.02 0.02 0.03 0.03 0.04 0.05 0.04 0.04 0.04 0.05 0.06 0.07 0.06 0.06 0.06 0.08 0.09 0.11 0.12 0.13 0.13 0.12 0.13 0.11 0.10 0.10 0.08 0.06 0.07 0.07 0.06 0.06 0.04 0.04 0.04 0.03
0.03 0.03 0.02 0.03 0.02 0.02 0.03 0.03 0.02 0.02 0.03 0.05 0.06 0.07 0.08 0.07 0.08 0.09 0.08 0.07 0.09 0.11 0.11 0.09 0.09 0.11 0.11 0.11 0.09 0.11 0.11 0.10 0.10 0.10 0.09 0.10 0.10 0.10 0.08 0.06 0.04 0.04 0.03
0.01 0.01 0.01 0.01 0.01 0.02 0.02 0.02 0.02 0.02 0.03 0.04 0.05 0.06 0.06 0.05 0.06 0.07 0.08 0.07 0.08 0.10 0.10 0.10 0.08 0.08 0.08 0.08 0.07 0.06 0.06 0.08 0.10 0.13 0.14 0.14 0.12 0.10 0.07 0.05 0.04 0.04 0.04
0.01 0.01 0.01 0.01 0.01 0.02 0.02 0.02 0.02 0.02 0.03 0.04 0.05 0.05 0.05 0.07 0.09 0.09 0.10 0.08 0.07 0.08 0.09 0.09 0.07 0.06 0.07 0.06 0.06 0.06 0.06 0.08 0.10 0.12 0.12 0.09 0.08 0.08 0.09 0.07 0.07 0.06 0.05
0.00 0.01 0.01 0.01 0.02 0.02 0.02 0.02 0.02 0.03 0.03 0.04 0.05 0.07 0.08 0.09 0.11 0.08 0.08 0.07 0.07 0.07 0.07 0.07 0.05 0.05 0.05 0.04 0.04 0.04 0.04 0.05 0.06 0.06 0.07 0.07 0.07 0.08 0.08 0.08 0.07 0.06 0.04
0.01 0.00 0.01 0.02 0.02 0.02 0.02 0.03 0.04 0.04 0.04 0.05 0.07 0.07 0.08 0.09 0.08 0.06 0.06 0.05 0.05 0.04 0.04 0.04 0.03 0.02 0.03 0.03 0.04 0.03 0.03 0.02 0.03 0.05 0.05 0.06 0.06 0.07 0.07 0.06 0.06 0.06 0.04
0.01 0.01 0.01 0.01 0.02 0.03 0.04 0.05 0.06 0.06 0.07 0.08 0.09 0.09 0.09 0.09 0.09 0.06 0.05 0.04 0.04 0.04 0.04 0.05 0.03 0.03 0.03 0.02 0.03 0.02 0.02 0.02 0.03 0.03 0.04 0.04 0.03 0.04 0.05 0.04 0.06 0.06 0.05
0.02 0.01 0.01 0.02 0.03 0.05 0.06 0.06 0.07 0.07 0.08 0.07 0.07 0.08 0.09 0.10 0.11 0.07 0.05 0.05 0.05 0.04 0.04 0.04 0.04 0.04 0.03 0.02 0.02 0.02 0.01 0.02 0.03 0.03 0.03 0.04 0.04 0.04 0.05 0.04 0.04 0.06 0.07
0.02 0.02 0.03 0.03 0.02 0.04 0.07 0.07 0.07 0.06 0.06 0.07 0.06 0.06 0.06 0.07 0.08 0.06 0.05 0.05 0.04 0.04 0.04 0.04 0.05 0.04 0.04 0.03 0.03 0.02 0.01 0.01 0.02 0.02 0.03 0.03 0.04 0.05 0.06 0.06 0.06 0.05 0.06
0.02 0.02 0.03 0.03 0.03 0.05 0.06 0.06 0.06 0.07 0.07 0.06 0.05 0.04 0.05 0.06 0.06 0.05 0.05 0.04 0.05 0.05 0.04 0.04 0.05 0.05 0.06 0.05 0.04 0.03 0.02 0.01 0.01 0.02 0.02 0.03 0.03 0.05 0.06 0.07 0.07 0.07 0.08
0.02 0.02 0.01 0.02 0.02 0.03 0.03 0.05 0.06 0.07 0.08 0.08 0.07 0.06 0.06 0.06 0.06 0.05 0.05 0.05 0.06 0.06 0.07 0.06 0.06 0.06 0.05 0.05 0.05 0.04 0.03 0.03 0.03 0.03 0.03 0.03 0.03 0.03 0.04 0.05 0.06 0.08 0.08
0.02 0.01 0.01 0.02 0.02 0.02 0.02 0.03 0.04 0.05 0.06 0.06 0.06 0.07 0.07 0.07 0.06 0.05 0.04 0.04 0.04 0.04 0.04 0.04 0.05 0.05 0.05 0.05 0.04 0.04 0.04 0.04 0.04 0.03 0.03 0.03 0.03 0.03 0.03 0.03 0.04 0.04 0.04
0.02 0.01 0.02 0.02 0.02 0.02 0.02 0.02 0.03 0.04 0.05 0.05 0.05 0.05 0.05 0.05 0.05 0.05 0.05 0.03 0.03 0.03 0.03 0.03 0.03 0.03 0.03 0.03 0.03 0.03 0.03 0.03 0.03 0.03 0.03 0.03 0.03 0.03 0.03 0.03 0.03 0.03 0.03
0.02 0.02 0.02 0.02 0.02 0.03 0.03 0.02 0.01 0.02 0.03 0.02 0.03 0.04 0.04 0.05 0.05 0.04 0.04 0.04 0.03 0.03 0.02 0.02 0.02 0.02 0.03 0.03 0.03 0.03 0.03 0.04 0.05 0.05 0.05 0.05 0.05 0.04 0.04 0.03 0.03 0.03 0.03
0.03 0.02 0.02 0.02 0.02 0.03 0.03 0.02 0.01 0.01 0.02 0.01 0.02 0.02 0.02 0.04 0.05 0.05 0.05 0.04 0.03 0.02 0.01 0.01 0.01 0.01 0.02 0.02 0.03 0.04 0.04 0.05 0.06 0.06 0.05 0.05 0.05 0.05 0.05 0.04 0.04 0.05 0.04
0.04 0.03 0.02 0.02 0.02 0.02 0.03 0.03 0.02 0.02 0.02 0.02 0.02 0.02 0.02 0.03 0.06 0.07 0.05 0.03 0.02 0.01 0.01 0.01 0.01 0.01 0.02 0.02 0.03 0.04 0.05 0.05 0.05 0.05 0.04 0.04 0.04 0.04 0.04 0.05 0.05 0.05 0.05
0.03 0.02 0.02 0.02 0.02 0.02 0.03 0.03 0.03 0.03 0.03 0.04 0.04 0.03 0.02 0.02 0.03 0.03 0.03 0.03 0.02 0.01 0.01 0.01 0.01 0.02 0.03 0.04 0.05 0.06 0.07 0.07 0.06 0.05 0.04 0.04 0.04 0.05 0.05 0.05 0.05 0.05 0.05
0.03 0.02 0.02 0.01 0.02 0.02 0.02 0.03 0.03 0.03 0.03 0.04 0.06 0.05 0.03 0.02 0.02 0.02 0.01 0.01 0.01 0.01 0.01 0.02 0.02 0.03 0.04 0.06 0.07 0.06 0.05 0.05 0.05 0.04 0.04 0.04 0.04 0.04 0.04 0.04 0.04 0.05 0.05
0.03 0.02 0.02 0.02 0.02 0.02 0.02 0.02 0.02 0.02 0.02 0.03 0.04 0.06 0.06 0.03 0.02 0.02 0.02 0.02 0.01 0.01 0.01 0.02 0.03 0.04 0.04 0.04 0.05 0.04 0.03 0.03 0.03 0.04 0.04 0.04 0.04 0.05 0.05 0.05 0.05 0.07 0.06
0.02 0.02 0.03 0.03 0.02 0.02 0.02 0.02 0.01 0.01 0.02 0.03 0.03 0.03 0.05 0.05 0.03 0.02 0.02 0.02 0.01 0.01 0.01 0.01 0.02 0.03 0.03 0.03 0.03 0.03 0.03 0.02 0.02 0.03 0.03 0.04 0.04 0.04 0.04 0.05 0.06 0.08 0.09
0.03 0.04 0.04 0.04 0.03 0.03 0.02 0.02 0.01 0.01 0.01 0.02 0.02 0.02 0.02 0.03 0.02 0.02 0.02 0.01 0.02 0.02 0.01 0.01 0.01 0.01 0.01 0.02 0.02 0.02 0.02 0.02 0.02 0.02 0.03 0.04 0.04 0.04 0.05 0.05 0.05 0.06 0.07
0.05 0.05 0.04 0.05 0.04 0.03 0.03 0.03 0.02 0.02 0.02 0.02 0.01 0.01 0.02 0.02 0.02 0.02 0.02 0.02 0.02 0.01 0.01 0.01 0.01 0.01 0.01 0.01 0.01 0.01 0.01 0.02 0.01 0.01 0.02 0.03 0.05 0.06 0.06 0.06 0.06 0.06 0.07
0.04 0.04 0.04 0.05 0.05 0.03 0.03 0.03 0.03 0.03 0.03 0.02 0.02 0.01 0.02 0.02 0.02 0.01 0.01 0.02 0.01 0.01 0.01 0.01 0.00 0.00 0.00 0.01 0.01 0.01 0.01 0.01 0.02 0.02 0.02 0.02 0.03 0.04 0.05 0.06 0.06 0.06 0.06
MSLP
1011.73 1011.51 1011.31 1011.12 1010.92 1010.72 1010.52 1010.33 1010.19 1010.10 1010.08 1010.13 1010.24 1010.41 1010.59 1010.79 1010.99 1011.17 1011.36 1011.57 1011.81 1012.10 1012.45 1012.86 1013.31 1013.76 1014.18 1014.52 1014.73 1014.78 1014.66 1014.36 1013.91 1013.34 1012.72 1012.09 1011.51 1011.04 1010.69 1010.48 1010.41 1010.48 1010.64
1011.61 1011.35 1011.11 1010.88 1010.65 1010.40 1010.15 1009.92 1009.71 1009.56 1009.46 1009.43 1009.47 1009.56 1009.69 1009.84 1009.99 1010.13 1010.29 1010.46 1010.65 1010.90 1011.21 1011.58 1012.00 1012.45 1012.89 1013.28 1013.58 1013.75 1013.77 1013.63 1013.34 1012.94 1012.44 1011.92 1011.40 1010.95 1010.58 1010.31 1010.16 1010.12 1010.16
1011.57 1011.27 1010.99 1010.72 1010.44 1010.15 1009.86 1009.57 1009.31 1009.09 1008.92 1008.82 1008.79 1008.81 1008.88 1008.97 1009.07 1009.18 1009.29 1009.42 1009.57 1009.77 1010.02 1010.33 1010.70 1011.12 1011.55 1011.96 1012.32 1012.58 1012.73 1012.74 1012.63 1012.39 1012.06 1011.67 1011.26 1010.86 1010.51 1010.22 1010.01 1009.87 1009.79
1011.62 1011.27 1010.94 1010.62 1010.29 1009.95 1009.60 1009.26 1008.95 1008.67 1008.45 1008.29 1008.19 1008.16 1008.17 1008.22 1008.28 1008.35 1008.43 1008.52 1008.62 1008.77 1008.96 1009.20 1009.51 1009.87 1010.26 1010.66 1011.04 1011.37 1011.61 1011.76 1011.79 1011.72 1011.55 1011.31 1011.03 1010.72 1010.41 1010.12 1009.87 1009.65 1009.47
1011.72 1011.31 1010.92 1010.54 1010.14 1009.75 1009.35 1008.96 1008.60 1008.28 1008.01 1007.81 1007.68 1007.60 1007.59 1007.60 1007.64 1007.68 1007.73 1007.79 1007.85 1007.95 1008.08 1008.26 1008.49 1008.78 1009.12 1009.48 1009.85 1010.20 1010.50 1010.73 1010.89 1010.95 1010.93 1010.83 1010.67 1010.45 1010.21 1009.94 1009.67 1009.39 1009.12
1011.84 1011.37 1010.91 1010.45 1009.99 1009.53 1009.08 1008.65 1008.25 1007.90 1007.61 1007.39 1007.24 1007.15 1007.11 1007.11 1007.13 1007.16 1007.20 1007.23 1007.27 1007.32 1007.40 1007.51 1007.68 1007.89 1008.16 1008.47 1008.80 1009.13 1009.45 1009.73 1009.95 1010.11 1010.20 1010.21 1010.14 1010.02 1009.83 1009.59 1009.32 1009.01 1008.69
1011.93 1011.39 1010.85 1010.31 1009.79 1009.27 1008.78 1008.32 1007.91 1007.55 1007.26 1007.03 1006.89 1006.80 1006.76 1006.76 1006.77 1006.80 1006.82 1006.84 1006.85 1006.87 1006.90 1006.96 1007.06 1007.21 1007.40 1007.63 1007.90 1008.19 1008.48 1008.76 1009.01 1009.21 1009.35 1009.43 1009.44 1009.38 1009.24 1009.04 1008.78 1008.47 1008.13
1011.95 1011.34 1010.73 1010.14 1009.55 1009.00 1008.48 1008.02 1007.61 1007.26 1006.99 1006.79 1006.66 1006.58 1006.55 1006.55 1006.56 1006.58 1006.59 1006.58 1006.57 1006.56 1006.55 1006.57 1006.60 1006.68 1006.79 1006.95 1007.14 1007.36 1007.59 1007.82 1008.05 1008.24 1008.39 1008.50 1008.54 1008.51 1008.42 1008.26 1008.03 1007.75 1007.43
1011.90 1011.24 1010.58 1009.94 1009.33 1008.76 1008.24 1007.79 1007.41 1007.11 1006.87 1006.71 1006.60 1006.54 1006.52 1006.51 1006.51 1006.50 1006.48 1006.45 1006.40 1006.35 1006.30 1006.26 1006.24 1006.24 1006.28 1006.35 1006.45 1006.58 1006.73 1006.89 1007.04 1007.19 1007.31 1007.40 1007.45 1007.45 1007.39 1007.27 1007.10 1006.88 1006.62
1011.81 1011.12 1010.44 1009.78 1009.17 1008.62 1008.14 1007.74 1007.41 1007.16 1006.97 1006.85 1006.77 1006.73 1006.69 1006.66 1006.63 1006.57 1006.50 1006.42 1006.31 1006.21 1006.10 1006.00 1005.91 1005.84 1005.80 1005.78 1005.79 1005.81 1005.86 1005.92 1005.98 1006.05 1006.12 1006.17 1006.21 1006.21 1006.19 1006.13 1006.03 1005.90 1005.74
1011.74 1011.05 1010.38 1009.75 1009.18 1008.67 1008.25 1007.91 1007.66 1007.47 1007.34 1007.26 1007.20 1007.15 1007.10 1007.03 1006.93 1006.81 1006.66 1006.49 1006.31 1006.12 1005.94 1005.76 1005.60 1005.45 1005.32 1005.20 1005.10 1005.02 1004.95 1004.90 1004.87 1004.85 1004.85 1004.85 1004.87 1004.89 1004.90 1004.91 1004.90 1004.89 1004.86
1011.77 1011.12 1010.49 1009.92 1009.41 1008.98 1008.64 1008.38 1008.20 1008.08 1008.00 1007.95 1007.90 1007.84 1007.74 1007.60 1007.42 1007.21 1006.96 1006.69 1006.40 1006.12 1005.84 1005.57 1005.31 1005.07 1004.84 1004.62 1004.42 1004.22 1004.04 1003.88 1003.74 1003.63 1003.56 1003.52 1003.52 1003.56 1003.62 1003.71 1003.81 1003.92 1004.04
1011.96 1011.38 1010.82 1010.33 1009.90 1009.56 1009.31 1009.13 1009.02 1008.96 1008.93 1008.89 1008.83 1008.73 1008.58 1008.36 1008.09 1007.77 1007.41 1007.02 1006.62 1006.23 1005.84 1005.47 1005.11 1004.77 1004.44 1004.11 1003.79 1003.48 1003.19 1002.92 1002.68 1002.49 1002.36 1002.29 1002.29 1002.35 1002.48 1002.65 1002.86 1003.10 1003.36
1012.36 1011.85 1011.39 1010.99 1010.65 1010.40 1010.22 1010.12 1010.07 1010.05 1010.03 1010.00 1009.92 1009.77 1009.56 1009.26 1008.90 1008.47 1008.00 1007.51 1007.00 1006.50 1006.01 1005.53 1005.08 1004.63 1004.19 1003.76 1003.34 1002.92 1002.52 1002.15 1001.83 1001.58 1001.39 1001.30 1001.31 1001.40 1001.58 1001.84 1002.15 1002.50 1002.88
1012.93 1012.52 1012.15 1011.84 1011.58 1011.40 1011.29 1011.23 1011.21 1011.21 1011.20 1011.15 1011.04 1010.85 1010.58 1010.22 1009.78 1009.27 1008.72 1008.14 1007.55 1006.96 1006.39 1005.83 1005.29 1004.76 1004.23 1003.71 1003.19 1002.68 1002.19 1001.74 1001.34 1001.03 1000.81 1000.70 1000.71 1000.83 1001.06 1001.38 1001.77 1002.21 1002.66
1013.61 1013.30 1013.01 1012.76 1012.57 1012.44 1012.36 1012.33 1012.32 1012.32 1012.29 1012.22 1012.08 1011.86 1011.55 1011.15 1010.66 1010.12 1009.53 1008.91 1008.28 1007.65 1007.03 1006.43 1005.83 1005.24 1004.65 1004.06 1003.46 1002.88 1002.32 1001.80 1001.35 1000.99 1000.74 1000.62 1000.63 1000.76 1001.02 1001.38 1001.80 1002.28 1002.77
1014.28 1014.04 1013.82 1013.63 1013.47 1013.36 1013.30 1013.26 1013.24 1013.22 1013.18 1013.08 1012.92 1012.68 1012.36 1011.96 1011.48 1010.94 1010.37 1009.76 1009.15 1008.53 1007.93 1007.32 1006.72 1006.11 1005.49 1004.86 1004.22 1003.59 1002.98 1002.42 1001.92 1001.52 1001.24 1001.10 1001.09 1001.22 1001.48 1001.83 1002.26 1002.72 1003.20
1014.82 1014.63 1014.45 1014.29 1014.15 1014.05 1013.97 1013.92 1013.88 1013.83 1013.77 1013.66 1013.50 1013.27 1012.97 1012.60 1012.17 1011.70 1011.19 1010.66 1010.11 1009.57 1009.02 1008.47 1007.91 1007.32 1006.72 1006.10 1005.45 1004.80 1004.17 1003.57 1003.05 1002.61 1002.30 1002.12 1002.09 1002.18 1002.40 1002.72 1003.10 1003.52 1003.94
1015.12 1014.97 1014.81 1014.66 1014.53 1014.41 1014.32 1014.24 1014.18 1014.11 1014.03 1013.93 1013.78 1013.59 1013.34 1013.05 1012.71 1012.34 1011.94 1011.53 1011.10 1010.67 1010.24 1009.78 1009.30 1008.80 1008.25 1007.66 1007.05 1006.41 1005.78 1005.17 1004.63 1004.16 1003.81 1003.59 1003.51 1003.55 1003.70 1003.95 1004.26 1004.60 1004.93
1015.15 1015.01 1014.86 1014.71 1014.56 1014.43 1014.32 1014.22 1014.15 1014.07 1014.00 1013.91 1013.80 1013.67 1013.50 1013.30 1013.08 1012.84 1012.58 1012.31 1012.04 1011.76 1011.46 1011.14 1010.78 1010.38 1009.92 1009.41 1008.85 1008.25 1007.64 1007.04 1006.49 1006.00 1005.62 1005.34 1005.19 1005.16 1005.24 1005.39 1005.60 1005.84 1006.07
1014.91 1014.77 1014.62 1014.46 1014.30 1014.16 1014.03 1013.93 1013.85 1013.79 1013.73 1013.68 1013.62 1013.56 1013.48 1013.39 1013.30 1013.19 1013.09 1012.98 1012.86 1012.74 1012.60 1012.42 1012.20 1011.92 1011.57 1011.15 1010.66 1010.12 1009.55 1008.98 1008.42 1007.92 1007.50 1007.17 1006.95 1006.84 1006.82 1006.88 1006.99 1007.12 1007.25
1014.47 1014.32 1014.16 1013.99 1013.83 1013.68 1013.56 1013.46 1013.39 1013.34 1013.32 1013.32 1013.32 1013.34 1013.35 1013.37 1013.39 1013.42 1013.46 1013.49 1013.52 1013.55 1013.55 1013.51 1013.42 1013.26 1013.03 1012.71 1012.31 1011.84 1011.32 1010.78 1010.24 1009.72 1009.27 1008.90 1008.61 1008.42 1008.32 1008.28 1008.30 1008.33 1008.36
1013.92 1013.76 1013.59 1013.42 1013.26 1013.11 1012.99 1012.91 1012.86 1012.85 1012.87 1012.92 1012.98 1013.07 1013.17 1013.28 1013.41 1013.54 1013.69 1013.84 1014.00 1014.14 1014.26 1014.34 1014.36 1014.31 1014.18 1013.96 1013.64 1013.25 1012.79 1012.29 1011.76 1011.26 1010.79 1010.38 1010.04 1009.78 1009.60 1009.49 1009.42 1009.38 1009.34
1013.36 1013.19 1013.01 1012.84 1012.68 1012.54 1012.45 1012.38 1012.36 1012.39 1012.45 1012.54 1012.67 1012.81 1012.98 1013.17 1013.37 1013.59 1013.82 1014.05 1014.29 1014.52 1014.73 1014.89 1015.00 1015.04 1015.00 1014.86 1014.62 1014.30 1013.90 1013.44 1012.95 1012.46 1011.98 1011.55 1011.18 1010.88 1010.64 1010.47 1010.34 1010.24 1010.16
1012.82 1012.65 1012.48 1012.31 1012.16 1012.05 1011.97 1011.93 1011.94 1011.99 1012.09 1012.23 1012.40 1012.60 1012.82 1013.06 1013.31 1013.58 1013.86 1014.15 1014.45 1014.73 1014.99 1015.21 1015.39 1015.49 1015.52 1015.44 1015.28 1015.02 1014.68 1014.27 1013.82 1013.35 1012.89 1012.46 1012.07 1011.74 1011.47 1011.25 1011.09 1010.95 1010.83
1012.32 1012.17 1012.01 1011.86 1011.72 1011.63 1011.57 1011.55 1011.59 1011.67 1011.80 1011.98 1012.18 1012.42 1012.67 1012.95 1013.25 1013.55 1013.87 1014.19 1014.51 1014.82 1015.11 1015.37 1015.59 1015.74 1015.81 1015.80 1015.69 1015.50 1015.22 1014.86 1014.46 1014.03 1013.59 1013.17 1012.78 1012.44 1012.15 1011.91 1011.72 1011.57 1011.43
Thickness
5791 5789 5786 5784 5782 5780 5778 5777 5776 5775 5775 5773 5772 5770 5768 5766 5764 5762 5760 5760 5757 5756 5756 5754 5753 5752 5751 5749 5748 5745 5743 5739 5732 5735 5739 5739 5737 5734 5731 5729 5728 5726 5723
5788 5786 5783 5782 5780 5777 5776 5775 5774 5772 5772 5770 5769 5767 5766 5765 5763 5761 5758 5757 5755 5753 5752 5751 5749 5749 5747 5745 5743 5741 5739 5738 5732 5727 5730 5730 5730 5729 5726 5724 5723 5722 5721
5785 5781 5779 5777 5776 5773 5772 5772 5771 5769 5768 5767 5766 5764 5763 5762 5760 5759 5757 5755 5754 5752 5750 5747 5746 5744 5741 5740 5738 5736 5735 5735 5731 5725 5724 5726 5724 5724 5720 5719 5718 5716 5715
5781 5777 5773 5772 5771 5770 5769 5768 5767 5766 5764 5763 5762 5761 5759 5758 5758 5756 5754 5752 5751 5749 5747 5745 5743 5740 5738 5735 5734 5732 5731 5728 5725 5722 5720 5719 5717 5718 5715 5710 5709 5709 5708
5776 5772 5769 5768 5767 5766 5764 5763 5763 5762 5761 5759 5757 5756 5755 5754 5754 5752 5750 5748 5745 5742 5742 5742 5740 5738 5735 5732 5731 5728 5725 5722 5719 5716 5713 5711 5710 5707 5705 5705 5701 5701 5701
5770 5768 5767 5765 5763 5761 5760 5759 5758 5757 5756 5755 5753 5751 5750 5750 5749 5748 5745 5743 5741 5739 5737 5736 5735 5733 5730 5728 5725 5723 5721 5717 5713 5710 5707 5704 5703 5702 5701 5698 5695 5692 5690
5765 5763 5762 5760 5758 5756 5755 5753 5751 5750 5749 5747 5746 5745 5743 5742 5742 5741 5739 5738 5736 5735 5732 5731 5730 5729 5725 5722 5719 5717 5715 5714 5711 5707 5703 5700 5698 5697 5695 5691 5688 5686 5685
5758 5757 5757 5755 5753 5752 5749 5747 5745 5744 5743 5741 5740 5739 5737 5736 5734 5733 5733 5732 5730 5729 5727 5725 5723 5721 5720 5715 5712 5710 5709 5707 5706 5704 5701 5698 5697 5695 5692 5688 5685 5682 5682
5751 5750 5750 5748 5746 5744 5742 5740 5739 5737 5736 5735 5735 5733 5730 5728 5727 5726 5724 5724 5722 5721 5720 5719 5717 5714 5712 5709 5705 5702 5700 5699 5699 5697 5695 5693 5691 5689 5686 5682 5679 5675 5673
5744 5743 5743 5741 5739 5737 5735 5734 5734 5732 5730 5729 5728 5726 5724 5722 5720 5719 5717 5716 5714 5713 5712 5711 5710 5707 5704 5701 5698 5695 5691 5691 5690 5688 5686 5685 5684 5682 5680 5677 5674 5670 5668
5737 5736 5735 5734 5732 5731 5730 5728 5727 5725 5723 5721 5720 5719 5718 5716 5712 5710 5709 5708 5706 5704 5703 5702 5701 5699 5696 5693 5690 5687 5685 5683 5682 5679 5678 5676 5676 5674 5673 5671 5669 5667 5662
5728 5726 5726 5726 5726 5726 5723 5721 5719 5717 5715 5714 5712 5710 5710 5708 5706 5702 5701 5699 5697 5695 5694 5694 5692 5689 5686 5684 5681 5680 5678 5675 5674 5671 5669 5668 5666 5665 5665 5664 5662 5661 5659
5719 5718 5718 5718 5718 5717 5715 5713 5712 5710 5708 5707 5705 5703 5701 5700 5697 5694 5691 5690 5689 5686 5686 5684 5682 5680 5677 5676 5675 5672 5670 5667 5666 5663 5661 5660 5660 5659 5657 5655 5654 5653 5652
5710 5710 5710 5709 5708 5707 5706 5706 5704 5702 5700 5698 5696 5694 5693 5690 5688 5685 5682 5680 5678 5676 5675 5673 5671 5670 5669 5667 5666 5665 5664 5662 5660 5657 5655 5654 5654 5652 5650 5649 5646 5644 5642
5703 5703 5702 5701 5699 5697 5696 5694 5694 5692 5692 5689 5688 5686 5683 5681 5678 5675 5673 5672 5670 5667 5664 5663 5662 5661 5661 5659 5659 5658 5657 5656 5653 5651 5649 5647 5645 5645 5643 5642 5639 5638 5635
5695 5694 5694 5693 5691 5690 5687 5685 5682 5682 5681 5680 5678 5676 5674 5672 5669 5667 5664 5661 5659 5657 5655 5655 5653 5653 5652 5651 5649 5648 5647 5646 5645 5643 5641 5639 5637 5636 5634 5633 5632 5630 5627
5686 5685 5685 5684 5682 5681 5679 5677 5674 5671 5670 5668 5668 5666 5664 5661 5659 5657 5654 5651 5649 5647 5646 5646 5644 5644 5643 5642 5641 5639 5638 5637 5636 5634 5632 5631 5629 5627 5626 5624 5623 5622 5621
5680 5678 5677 5675 5674 5672 5671 5669 5669 5667 5663 5661 5658 5655 5653 5651 5649 5647 5644 5642 5641 5641 5640 5639 5637 5636 5635 5633 5632 5630 5629 5628 5626 5625 5624 5622 5621 5619 5617 5616 5615 5614 5612
5672 5671 5669 5668 5666 5664 5663 5661 5660 5658 5656 5653 5651 5646 5643 5641 5639 5637 5636 5635 5635 5634 5633 5630 5628 5627 5625 5624 5623 5621 5619 5617 5616 5615 5615 5614 5612 5611 5609 5609 5608 5606 5605
5663 5662 5661 5659 5658 5656 5655 5653 5651 5649 5647 5645 5643 5640 5636 5634 5633 5631 5628 5628 5628 5627 5625 5623 5621 5619 5617 5615 5613 5612 5610 5608 5607 5606 5605 5605 5604 5603 5602 5601 5601 5600 5599
5658 5655 5652 5652 5651 5649 5647 5645 5643 5641 5639 5638 5636 5633 5629 5628 5627 5625 5623 5621 5620 5619 5617 5615 5613 5611 5609 5607 5604 5602 5601 5599 5598 5597 5597 5596 5595 5595 5594 5594 5594 5594 5593
5650 5649 5647 5645 5643 5641 5639 5637 5635 5632 5631 5629 5627 5624 5620 5620 5620 5619 5616 5615 5614 5612 5610 5607 5605 5603 5601 5598 5595 5593 5592 5590 5589 5588 5588 5588 5588 5588 5587 5587 5587 5586 5585
5643 5643 5641 5639 5636 5632 5630 5629 5627 5625 5622 5620 5619 5617 5614 5613 5612 5611 5609 5608 5606 5604 5602 5599 5597 5594 5592 5589 5587 5584 5582 5581 5580 5580 5579 5580 5580 5580 5580 5580 5579 5579 5578
5637 5636 5634 5631 5629 5626 5623 5622 5621 5619 5616 5613 5611 5610 5608 5606 5605 5603 5602 5600 5598 5596 5593 5590 5587 5584 5582 5581 5578 5576 5573 5572 5571 5571 5571 5571 5572 5573 5573 5573 5573 5573 5572
5628 5628 5626 5624 5621 5619 5617 5615 5613 5611 5609 5606 5604 5603 5601 5599 5597 5595 5594 5592 5590 5587 5585 5582 5579 5577 5574 5573 5570 5568 5566 5564 5563 5563 5563 5564 5565 5566 5566 5567 5567 5567 5566
5620 5618 5617 5616 5614 5611 5609 5607 5606 5604 5602 5600 5598 5596 5594 5592 5590 5588 5586 5584 5582 5580 5578 5575 5572 5570 5568 5566 5563 5561 5559 5558 5558 5557 5557 5557 5558 5559 5560 5560 5560 5560 5560